| time (UTC) | temp F | wind direction | speed MPH | gust MPH | rain 1hr in | rain 24hr in | rain mn in | humidity % | barometer mb |
| 20260902202705 | 63 | 4 | 0.0 | 2.0 | 0.02 | 0.02 | 0.02 | 83 | 1002.5 |
| 20260902202205 | 63 | 216 | 0.0 | 3.0 | 0.02 | 0.02 | 0.02 | 84 | 1002.6 |
| 20260902195704 | 62 | 146 | 0.0 | 1.0 | 0.02 | 0.02 | 0.02 | 87 | 1002.8 |
| 20260902195204 | 62 | 117 | 0.0 | 2.0 | 0.02 | 0.02 | 0.02 | 87 | 1002.8 |
| 20260902192205 | 66 | 152 | 1.0 | 3.0 | 0.00 | 0.00 | 0.00 | 68 | 1002.7 |
| 20260902191705 | 66 | 162 | 1.0 | 3.0 | 0.00 | 0.00 | 0.00 | 68 | 1002.7 |
| 20260902191205 | 66 | 163 | 1.0 | 2.0 | 0.00 | 0.00 | 0.00 | 66 | 1002.7 |
| 20260902190705 | 67 | 159 | 0.0 | 2.0 | 0.00 | 0.00 | 0.00 | 70 | 1002.8 |
| 20260902185207 | 66 | 237 | 0.0 | 2.0 | 0.00 | 0.00 | 0.00 | 69 | 1003.0 |
| 20260902184705 | 65 | 237 | 0.0 | 1.0 | 0.00 | 0.00 | 0.00 | 73 | 1003.0 |
| 20260902184205 | 64 | 193 | 0.0 | 2.0 | 0.00 | 0.00 | 0.00 | 74 | 1003.1 |
| 20260902183705 | 64 | 160 | 0.0 | 2.0 | 0.00 | 0.00 | 0.00 | 75 | 1003.1 |
| 20260902182205 | 63 | 160 | 0.0 | 2.0 | 0.00 | 0.00 | 0.00 | 76 | 1003.4 |
| 20260902181705 | 63 | 160 | 0.0 | 2.0 | 0.00 | 0.00 | 0.00 | 77 | 1003.5 |
| 20260902181205 | 63 | 160 | 0.0 | 2.0 | 0.00 | 0.00 | 0.00 | 76 | 1003.5 |
| 20260902172705 | 63 | 160 | 0.0 | 2.0 | 0.00 | 0.00 | 0.00 | 78 | 1003.9 |
| 20260902172205 | 63 | 160 | 0.0 | 2.0 | 0.00 | 0.00 | 0.00 | 77 | 1003.9 |
| 20260902170704 | 62 | 154 | 0.0 | 2.0 | 0.00 | 0.00 | 0.00 | 79 | 1004.1 |
| 20260902165705 | 62 | 138 | 0.0 | 1.0 | 0.00 | 0.00 | 0.00 | 79 | 1004.2 |
| 20260902165204 | 62 | 137 | 0.0 | 2.0 | 0.00 | 0.00 | 0.00 | 79 | 1004.2 |
| 20260902164704 | 62 | 137 | 0.0 | 2.0 | 0.00 | 0.00 | 0.00 | 80 | 1004.2 |
| 20260902164204 | 62 | 151 | 0.0 | 1.0 | 0.00 | 0.00 | 0.00 | 80 | 1004.2 |
| 20260902163705 | 62 | 151 | 0.0 | 2.0 | 0.00 | 0.00 | 0.00 | 80 | 1004.2 |
| 20260902162705 | 62 | 169 | 0.0 | 2.0 | 0.00 | 0.00 | 0.00 | 80 | 1004.4 |
| 20260902161705 | 62 | 206 | 0.0 | 2.0 | 0.00 | 0.00 | 0.00 | 81 | 1004.5 |
| 20260902160205 | 61 | 169 | 0.0 | 2.0 | 0.00 | 0.00 | 0.00 | 82 | 1004.5 |
| 20260902155704 | 61 | 169 | 1.0 | 2.0 | 0.00 | 0.00 | 0.00 | 83 | 1004.5 |
| 20260902155204 | 61 | 144 | 0.0 | 2.0 | 0.00 | 0.00 | 0.00 | 83 | 1004.5 |
| 20260902153705 | 61 | 166 | 0.0 | 1.0 | 0.00 | 0.00 | 0.00 | 83 | 1004.8 |
| 20260902153205 | 61 | 166 | 0.0 | 2.0 | 0.00 | 0.00 | 0.00 | 84 | 1004.8 |
| 20260902151705 | 60 | 183 | 0.0 | 2.0 | 0.00 | 0.00 | 0.00 | 87 | 1005.0 |
| 20260902151205 | 59 | 153 | 0.0 | 2.0 | 0.00 | 0.00 | 0.00 | 86 | 1005.0 |
| 20260902150704 | 59 | 153 | 1.0 | 2.0 | 0.00 | 0.00 | 0.00 | 87 | 1005.1 |
| 20260902150205 | 59 | 148 | 0.0 | 2.0 | 0.00 | 0.00 | 0.00 | 86 | 1005.1 |
| 20260902144204 | 60 | 176 | 0.0 | 2.0 | 0.00 | 0.00 | 0.00 | 86 | 1005.3 |
| 20260902143705 | 60 | 176 | 0.0 | 2.0 | 0.00 | 0.00 | 0.00 | 86 | 1005.4 |
| 20260902143205 | 60 | 170 | 0.0 | 2.0 | 0.00 | 0.00 | 0.00 | 85 | 1005.4 |
| 20260902142705 | 60 | 178 | 0.0 | 2.0 | 0.00 | 0.00 | 0.00 | 85 | 1005.4 |
| 20260902141705 | 60 | 204 | 0.0 | 2.0 | 0.00 | 0.00 | 0.00 | 85 | 1005.4 |
| 20260902141205 | 60 | 204 | 0.0 | 2.0 | 0.00 | 0.00 | 0.00 | 85 | 1005.4 |
| 20260902140204 | 60 | 212 | 0.0 | 2.0 | 0.00 | 0.00 | 0.00 | 85 | 1005.4 |
| 20260902135705 | 60 | 208 | 0.0 | 1.0 | 0.00 | 0.00 | 0.00 | 85 | 1005.4 |
| 20260902135205 | 60 | 208 | 0.0 | 2.0 | 0.00 | 0.00 | 0.00 | 85 | 1005.4 |
| 20260902134705 | 60 | 208 | 0.0 | 2.0 | 0.00 | 0.00 | 0.00 | 85 | 1005.4 |
| 20260902133705 | 60 | 208 | 0.0 | 2.0 | 0.00 | 0.00 | 0.00 | 85 | 1005.4 |
| 20260902131705 | 60 | 125 | 0.0 | 2.0 | 0.00 | 0.00 | 0.00 | 85 | 1005.5 |
| 20260902131205 | 60 | 75 | 0.0 | 2.0 | 0.00 | 0.00 | 0.00 | 85 | 1005.6 |
| 20260902130205 | 60 | 109 | 0.0 | 2.0 | 0.00 | 0.00 | 0.00 | 86 | 1005.7 |
| 20260902125205 | 60 | 181 | 0.0 | 2.0 | 0.00 | 0.00 | 0.00 | 86 | 1005.7 |
| 20260902123205 | 60 | 248 | 0.0 | 2.0 | 0.00 | 0.00 | 0.00 | 87 | 1005.8 |
| 20260902122204 | 60 | 171 | 0.0 | 2.0 | 0.00 | 0.00 | 0.00 | 88 | 1005.8 |
| 20260902121705 | 59 | 171 | 0.0 | 1.0 | 0.00 | 0.00 | 0.00 | 88 | 1005.8 |
| 20260902121204 | 59 | 320 | 0.0 | 1.0 | 0.00 | 0.00 | 0.00 | 88 | 1005.9 |
| 20260902115705 | 59 | 85 | 0.0 | 2.0 | 0.00 | 0.00 | 0.00 | 90 | 1006.0 |
| 20260902112204 | 59 | 64 | 0.0 | 2.0 | 0.00 | 0.00 | 0.00 | 90 | 1006.2 |
| 20260902111705 | 59 | 131 | 0.0 | 2.0 | 0.00 | 0.00 | 0.00 | 90 | 1006.2 |
| 20260902110705 | 59 | 117 | 0.0 | 2.0 | 0.00 | 0.00 | 0.00 | 90 | 1006.2 |
| 20260902110205 | 59 | 117 | 0.0 | 2.0 | 0.00 | 0.00 | 0.00 | 90 | 1006.4 |
| 20260902105705 | 59 | 123 | 0.0 | 1.0 | 0.00 | 0.00 | 0.00 | 90 | 1006.5 |
| 20260902105205 | 59 | 123 | 0.0 | 2.0 | 0.00 | 0.00 | 0.00 | 90 | 1006.4 |
| 20260902104205 | 59 | 106 | 0.0 | 2.0 | 0.00 | 0.00 | 0.00 | 90 | 1006.5 |
| 20260902103705 | 59 | 79 | 0.0 | 1.0 | 0.00 | 0.00 | 0.00 | 90 | 1006.5 |
| 20260902103205 | 59 | 140 | 0.0 | 2.0 | 0.00 | 0.00 | 0.00 | 90 | 1006.4 |
| 20260902102704 | 59 | 154 | 0.0 | 2.0 | 0.00 | 0.00 | 0.00 | 90 | 1006.6 |
| 20260902101205 | 59 | 154 | 0.0 | 1.0 | 0.00 | 0.00 | 0.00 | 90 | 1006.7 |
| 20260902100705 | 59 | 153 | 0.0 | 2.0 | 0.00 | 0.00 | 0.00 | 90 | 1006.7 |
| 20260902095205 | 59 | 155 | 0.0 | 2.0 | 0.00 | 0.00 | 0.00 | 90 | 1006.7 |
| 20260902094204 | 59 | 162 | 0.0 | 2.0 | 0.00 | 0.00 | 0.00 | 89 | 1006.7 |
| 20260902093704 | 59 | 162 | 0.0 | 2.0 | 0.00 | 0.00 | 0.00 | 88 | 1006.7 |
| 20260902093204 | 59 | 162 | 0.0 | 2.0 | 0.00 | 0.00 | 0.00 | 87 | 1006.7 |
| 20260902085205 | 60 | 157 | 0.0 | 2.0 | 0.00 | 0.00 | 0.00 | 86 | 1007.2 |
| 20260902084205 | 59 | 156 | 1.0 | 2.0 | 0.00 | 0.00 | 0.00 | 86 | 1007.3 |
| 20260902081705 | 59 | 215 | 0.0 | 2.0 | 0.00 | 0.00 | 0.00 | 85 | 1007.4 |
| 20260902075704 | 60 | 310 | 0.0 | 2.0 | 0.00 | 0.00 | 0.00 | 86 | 1007.4 |
| 20260902074705 | 60 | 141 | 0.0 | 1.0 | 0.00 | 0.00 | 0.00 | 86 | 1007.5 |
| 20260902073704 | 60 | 152 | 0.0 | 2.0 | 0.00 | 0.00 | 0.00 | 86 | 1007.6 |
| 20260902072704 | 60 | 158 | 1.0 | 2.0 | 0.00 | 0.00 | 0.00 | 86 | 1007.5 |
| 20260902071705 | 60 | 165 | 1.0 | 2.0 | 0.00 | 0.00 | 0.00 | 86 | 1007.4 |
| 20260902071205 | 60 | 162 | 1.0 | 2.0 | 0.00 | 0.00 | 0.00 | 86 | 1007.4 |
| 20260902070705 | 60 | 163 | 0.0 | 2.0 | 0.00 | 0.00 | 0.00 | 87 | 1007.3 |
| 20260902070205 | 60 | 162 | 1.0 | 2.0 | 0.00 | 0.00 | 0.00 | 86 | 1007.4 |
| 20260902065704 | 60 | 154 | 1.0 | 2.0 | 0.00 | 0.00 | 0.00 | 85 | 1007.3 |
| 20260902062704 | 60 | 148 | 0.0 | 2.0 | 0.00 | 0.00 | 0.00 | 87 | 1007.3 |
| 20260902061204 | 60 | 93 | 1.0 | 2.0 | 0.00 | 0.00 | 0.00 | 87 | 1007.2 |
| 20260902054204 | 60 | 159 | 1.0 | 2.0 | 0.00 | 0.00 | 0.00 | 87 | 1007.4 |
| 20260902053704 | 60 | 217 | 0.0 | 2.0 | 0.00 | 0.00 | 0.00 | 87 | 1007.5 |
| 20260902051705 | 60 | 167 | 0.0 | 2.0 | 0.00 | 0.00 | 0.00 | 87 | 1007.6 |
| 20260902050705 | 60 | 173 | 1.0 | 2.0 | 0.00 | 0.00 | 0.00 | 88 | 1007.7 |
| 20260902045705 | 60 | 163 | 0.0 | 3.0 | 0.00 | 0.00 | 0.00 | 88 | 1007.8 |
| 20260902045204 | 60 | 105 | 0.0 | 2.0 | 0.00 | 0.00 | 0.00 | 88 | 1007.8 |
| 20260902044205 | 60 | 167 | 0.0 | 2.0 | 0.00 | 0.00 | 0.00 | 88 | 1007.8 |
| 20260902043205 | 60 | 143 | 1.0 | 1.0 | 0.00 | 0.00 | 0.00 | 87 | 1007.8 |
| 20260902042704 | 60 | 148 | 0.0 | 2.0 | 0.00 | 0.00 | 0.00 | 87 | 1007.8 |
| 20260902040204 | 61 | 120 | 1.0 | 2.0 | 0.00 | 0.00 | 0.00 | 86 | 1007.7 |
| 20260902035204 | 61 | 134 | 0.0 | 2.0 | 0.00 | 0.00 | 0.00 | 85 | 1007.7 |
| 20260902033705 | 61 | 121 | 0.0 | 2.0 | 0.00 | 0.00 | 0.00 | 85 | 1007.6 |
| 20260902031704 | 61 | 113 | 1.0 | 2.0 | 0.00 | 0.00 | 0.00 | 85 | 1007.5 |
| 20260902031204 | 61 | 150 | 1.0 | 2.0 | 0.00 | 0.00 | 0.00 | 85 | 1007.4 |
| 20260902030704 | 61 | 155 | 0.0 | 2.0 | 0.00 | 0.00 | 0.00 | 85 | 1007.4 |
| 20260902025704 | 61 | 157 | 0.0 | 2.0 | 0.00 | 0.00 | 0.00 | 85 | 1007.3 |
| 20260902024204 | 62 | 174 | 0.0 | 2.0 | 0.00 | 0.00 | 0.00 | 84 | 1007.3 |
| 20260902021705 | 63 | 111 | 0.0 | 2.0 | 0.00 | 0.00 | 0.00 | 82 | 1007.3 |
| 20260902021205 | 63 | 175 | 1.0 | 2.0 | 0.00 | 0.00 | 0.00 | 82 | 1007.4 |
| 20260902020704 | 63 | 135 | 1.0 | 2.0 | 0.00 | 0.00 | 0.00 | 82 | 1007.3 |
| 20260902015205 | 63 | 149 | 1.0 | 2.0 | 0.00 | 0.00 | 0.00 | 81 | 1007.4 |
| 20260902014705 | 64 | 160 | 1.0 | 3.0 | 0.00 | 0.00 | 0.00 | 81 | 1007.3 |
| 20260902014205 | 64 | 152 | 1.0 | 3.0 | 0.00 | 0.00 | 0.00 | 81 | 1007.3 |
| 20260902013204 | 64 | 155 | 1.0 | 3.0 | 0.00 | 0.00 | 0.00 | 80 | 1007.3 |
| 20260902011705 | 64 | 161 | 1.0 | 2.0 | 0.00 | 0.00 | 0.00 | 79 | 1007.3 |
| 20260902005705 | 65 | 155 | 0.0 | 2.0 | 0.00 | 0.00 | 0.00 | 79 | 1007.3 |
| 20260902005204 | 64 | 122 | 1.0 | 2.0 | 0.00 | 0.00 | 0.00 | 79 | 1007.3 |
| 20260902004205 | 64 | 152 | 0.0 | 2.0 | 0.00 | 0.00 | 0.00 | 78 | 1007.3 |
| 20260902002705 | 65 | 149 | 1.0 | 3.0 | 0.00 | 0.00 | 0.00 | 77 | 1007.3 |
| 20260902001704 | 65 | 156 | 1.0 | 3.0 | 0.00 | 0.00 | 0.00 | 77 | 1007.3 |
| 20260902001205 | 65 | 181 | 1.0 | 2.0 | 0.00 | 0.00 | 0.00 | 77 | 1007.3 |
| 20260902000204 | 65 | 166 | 1.0 | 3.0 | 0.00 | 0.00 | 0.00 | 76 | 1007.3 |
| 20260901235705 | 66 | 193 | 1.0 | 3.0 | 0.00 | 0.00 | 0.00 | 76 | 1007.3 |
| 20260901235204 | 66 | 165 | 1.0 | 3.0 | 0.00 | 0.00 | 0.00 | 75 | 1007.3 |
| 20260901234705 | 66 | 163 | 1.0 | 2.0 | 0.00 | 0.00 | 0.00 | 74 | 1007.3 |
| 20260901234205 | 66 | 164 | 1.0 | 3.0 | 0.00 | 0.00 | 0.00 | 74 | 1007.4 |
| 20260901232705 | 66 | 147 | 1.0 | 3.0 | 0.00 | 0.00 | 0.00 | 73 | 1007.3 |
| 20260901231705 | 67 | 156 | 1.0 | 3.0 | 0.00 | 0.00 | 0.00 | 72 | 1007.3 |
| 20260901230704 | 67 | 177 | 1.0 | 2.0 | 0.00 | 0.00 | 0.00 | 73 | 1007.3 |
| 20260901230204 | 67 | 172 | 1.0 | 3.0 | 0.00 | 0.00 | 0.00 | 73 | 1007.3 |
| 20260901225705 | 67 | 155 | 1.0 | 2.0 | 0.00 | 0.00 | 0.00 | 72 | 1007.3 |
| 20260901223205 | 67 | 144 | 1.0 | 2.0 | 0.00 | 0.00 | 0.00 | 74 | 1007.3 |
| 20260901222704 | 67 | 156 | 1.0 | 3.0 | 0.00 | 0.00 | 0.00 | 73 | 1007.3 |
| 20260901221705 | 67 | 175 | 1.0 | 2.0 | 0.00 | 0.00 | 0.00 | 72 | 1007.3 |
| 20260901221205 | 68 | 153 | 1.0 | 2.0 | 0.00 | 0.00 | 0.00 | 73 | 1007.4 |
| 20260901220705 | 67 | 137 | 1.0 | 2.0 | 0.00 | 0.00 | 0.00 | 72 | 1007.5 |
| 20260901215204 | 67 | 180 | 0.0 | 2.0 | 0.00 | 0.00 | 0.00 | 72 | 1007.6 |
| 20260901214205 | 68 | 162 | 1.0 | 3.0 | 0.00 | 0.00 | 0.00 | 72 | 1007.5 |
| 20260901213705 | 68 | 167 | 1.0 | 2.0 | 0.00 | 0.00 | 0.00 | 72 | 1007.5 |
| 20260901212704 | 67 | 144 | 1.0 | 2.0 | 0.00 | 0.00 | 0.00 | 74 | 1007.6 |
| 20260901211704 | 68 | 144 | 1.0 | 2.0 | 0.00 | 0.00 | 0.00 | 73 | 1007.7 |
| 20260901210204 | 67 | 232 | 1.0 | 2.0 | 0.00 | 0.00 | 0.00 | 73 | 1007.8 |
| 20260901205705 | 67 | 162 | 1.0 | 3.0 | 0.00 | 0.00 | 0.00 | 72 | 1007.8 |
| 20260901205204 | 68 | 159 | 1.0 | 3.0 | 0.00 | 0.00 | 0.00 | 71 | 1007.8 |
| 20260901204204 | 70 | 193 | 1.0 | 2.0 | 0.00 | 0.00 | 0.00 | 69 | 1007.7 |
| 20260901203704 | 70 | 203 | 1.0 | 3.0 | 0.00 | 0.00 | 0.00 | 69 | 1007.8 |